This is the latest recevied weather packets stored in our database for station/object NK2J. If no packets are shown the sender has not sent any weather packets the latest 10 day(s).
| Time | Temp. | Humidity | Pressure | Rain* | Wind** | Luminosity | Snow |
|---|---|---|---|---|---|---|---|
| 1778015176 | 24.44° C | 32% | 1012.3 hPa | 0 mm | - | 692 W/m² | - |
| 1778014872 | 23.89° C | 33% | 1012.5 hPa | 0 mm | - | 814 W/m² | - |
| 1778014570 | 23.33° C | 34% | 1012.4 hPa | 0 mm | - | 216 W/m² | - |
| 1778014268 | 23.33° C | 36% | 1012.5 hPa | 0 mm | - | 207 W/m² | - |
| 1778013965 | 23.33° C | 37% | 1012.6 hPa | 0 mm | - | 887 W/m² | - |
| 1778013662 | 23.33° C | 37% | 1012.5 hPa | 0 mm | - | 220 W/m² | - |
| 1778013358 | 23.33° C | 37% | 1012.6 hPa | 0 mm | - | 257 W/m² | - |
| 1778013056 | 22.78° C | 38% | 1012.7 hPa | 0 mm | - | 223 W/m² | - |
| 1778012751 | 22.78° C | 38% | 1012.6 hPa | 0 mm | - | 191 W/m² | - |
| 1778012448 | 23.33° C | 38% | 1012.6 hPa | 0 mm | - | 246 W/m² | - |
| 1778012144 | 23.89° C | 38% | 1012.6 hPa | 0 mm | - | 891 W/m² | - |
| 1778011842 | 23.33° C | 40% | 1012.5 hPa | 0 mm | - | 901 W/m² | - |
| 1778011540 | 23.33° C | 40% | 1012.9 hPa | 0 mm | - | 879 W/m² | - |
| 1778011236 | 22.78° C | 40% | 1012.7 hPa | 0 mm | - | 864 W/m² | - |
| 1778010933 | 23.89° C | 39% | 1012.6 hPa | 0 mm | - | 833 W/m² | - |
| 1778010630 | 23.33° C | 38% | 1012.7 hPa | 0 mm | - | 791 W/m² | - |
| 1778010327 | 23.33° C | 39% | 1013 hPa | 0 mm | - | 708 W/m² | - |
| 1778010022 | 23.33° C | 38% | 1013 hPa | 0 mm | - | 766 W/m² | - |
| 1778009720 | 23.33° C | 39% | 1013 hPa | 0 mm | - | 812 W/m² | - |
| 1778009417 | 23.33° C | 39% | 1013.1 hPa | 0 mm | - | 831 W/m² | - |
| 1778009116 | 23.33° C | 39% | 1013 hPa | 0 mm | - | 277 W/m² | - |
| 1778008813 | 22.78° C | 40% | 1013.4 hPa | 0 mm | - | 676 W/m² | - |
| 1778008511 | 22.78° C | 39% | 1013.3 hPa | 0 mm | - | 439 W/m² | - |
| 1778008209 | 22.78° C | 40% | 1013.3 hPa | 0 mm | - | 935 W/m² | - |
| 1778007903 | 22.22° C | 42% | 1013.4 hPa | 0 mm | - | 808 W/m² | - |
* Rain latest hour (hover to see other rain measurements)
** Current wind speed in m/s (hover to see current wind gust speed)